Alabaster, AL

7:20 AM CST on December 11, 2016 (GMT -0600)
Shelby County

Weather History for KEET - May, 2014

Change the Weather History Date:

Thursday, May 1, 2014

  Actual Average Record
Temperature  
Mean Temperature 58 °F 67 °F  
Max Temperature 68 °F 78 °F 90 °F (1959)
Min Temperature 48 °F 55 °F 35 °F (1969)
Degree Days  
Heating Degree Days 7 2  
Month to date heating degree days 7 2  
Since 1 July heating degree days 2717 2570  
Cooling Degree Days 0 3  
Month to date cooling degree days 0 3  
Year to date cooling degree days 62 78  
Growing Degree Days 8 (Base 50)    
Moisture  
Dew Point 44 °F    
Average Humidity 62    
Maximum Humidity 86    
Minimum Humidity 37    
Precipitation  
Precipitation 0.00 in 0.14 in 1.13 in (1978)
Month to date precipitation 0.00 0.14  
Year to date precipitation 24.50 19.59  
Snow  
Snow 0.00 in - - ()
Month to date snowfall 0.0  
Since 1 July snowfall 1.3  
Snow Depth 0.00 in    
Sea Level Pressure  
Sea Level Pressure 30.03 in    
Wind  
Wind Speed 4 mph (WNW)    
Max Wind Speed 13 mph    
Max Gust Speed 17 mph    
Visibility 10 miles    
Events      
T = Trace of Precipitation, MM = Missing Value Source: NWS Daily Summary

Daily Weather History Graph

Daily Weather History Graph

Search for Another Location

Airport or City:

Trip Planner

Search our weather history database for the weather conditions in past years. The results will help you decide how hot, cold, wet, or windy it might be!

Date:

Astronomy

May. 01, 2014 Rise Set
Actual Time 5:59 AM CDT 7:29 PM CDT
Civil Twilight 5:32 AM CDT 7:56 PM CDT
Nautical Twilight 5:01 AM CDT 8:27 PM CDT
Astronomical Twilight 4:28 AM CDT 9:00 PM CDT
Moon 7:49 AM CDT (5/1) 9:59 PM CDT (5/1)
Length of Visible Light 14h 23m
Length of Day
13h 30m
Waxing Crescent, 7% of the Moon is Illuminated
May 1
Waxing Crescent
May 6
First Quarter
May 14
Full
May 21
Last Quarter
May 28
New

Hourly Weather History & Observations

Time (CDT) Temp. Dew Point Humidity Pressure Visibility Wind Dir Wind Speed Gust Speed Precip Events Conditions
12:53 AM 55.0 °F 48.0 °F 77% 30.02 in 10.0 mi WNW 5.8 mph - N/A   Clear
1:53 AM 53.1 °F 46.9 °F 80% 30.02 in 10.0 mi WNW 6.9 mph - N/A   Clear
2:53 AM 52.0 °F 46.0 °F 80% 30.03 in 10.0 mi West 5.8 mph - N/A   Clear
3:53 AM 50.0 °F 46.0 °F 86% 30.04 in 10.0 mi West 3.5 mph - N/A   Clear
4:53 AM 50.0 °F 46.0 °F 86% 30.04 in 10.0 mi WNW 3.5 mph - N/A   Clear
5:53 AM 48.0 °F 45.0 °F 89% 30.05 in 10.0 mi NW 4.6 mph - N/A   Clear
6:53 AM 48.9 °F 45.0 °F 86% 30.06 in 10.0 mi NW 5.8 mph - N/A   Clear
7:53 AM 52.0 °F 46.0 °F 80% 30.08 in 10.0 mi NW 6.9 mph - N/A   Clear
8:53 AM 55.0 °F 44.1 °F 67% 30.10 in 10.0 mi Variable 6.9 mph - N/A   Clear
9:53 AM 59.0 °F 42.1 °F 53% 30.08 in 10.0 mi NW 9.2 mph 16.1 mph N/A   Clear
10:53 AM 60.1 °F 41.0 °F 49% 30.09 in 10.0 mi Variable 3.5 mph - N/A   Scattered Clouds
11:53 AM 62.1 °F 41.0 °F 46% 30.07 in 10.0 mi NNW 6.9 mph - N/A   Partly Cloudy
12:53 PM 63.0 °F 42.1 °F 46% 30.05 in 10.0 mi Calm Calm - N/A   Clear
1:53 PM 66.0 °F 43.0 °F 43% 30.02 in 10.0 mi Variable 4.6 mph - N/A   Clear
2:53 PM 66.9 °F 43.0 °F 42% 30.00 in 10.0 mi Variable 5.8 mph - N/A   Clear
3:53 PM 68.0 °F 42.1 °F 39% 29.98 in 10.0 mi WNW 8.1 mph - N/A   Clear
4:53 PM 68.0 °F 41.0 °F 37% 29.98 in 10.0 mi NNW 5.8 mph - N/A   Clear
5:53 PM 66.9 °F 42.1 °F 40% 29.97 in 10.0 mi West 5.8 mph - N/A   Clear
6:53 PM 64.9 °F 42.1 °F 43% 29.97 in 10.0 mi WNW 4.6 mph - N/A   Clear
7:53 PM 61.0 °F 46.9 °F 60% 29.98 in 10.0 mi Calm Calm - N/A   Clear
8:53 PM 57.9 °F 48.0 °F 70% 30.00 in 10.0 mi Calm Calm - N/A   Clear
9:53 PM 57.0 °F 48.9 °F 74% 30.01 in 10.0 mi Calm Calm - N/A   Clear
10:53 PM 57.9 °F 44.1 °F 60% 30.00 in 10.0 mi Calm Calm - N/A   Clear
11:53 PM 57.0 °F 46.0 °F 67% 30.00 in 10.0 mi Calm Calm - N/A   Clear